Location: Burla
(50.9568°N, 10.4983°E)
Time: 01:55:52
(UTC+00:00)

Nadezhda 3 Rocket - Pass Details

Date: 18 January 2026
Orbit: 956 x 998 km, 82.9° (Epoch: 5 February)

Event Time Altitude Azimuth Distance (km) Brightness Sun altitude
Rises 05:28:15 0° 345° (NNW) 3,677 6.7 -15.8°
Reaches altitude 10° 05:30:52 10° 339° (NNW) 2,732 6.0 -15.4°
Maximum altitude 05:36:41 43° 271° (W) 1,360 4.3 -14.5°
Drops below altitude 10° 05:42:33 10° 202° (SSW) 2,742 6.3 -13.6°
Sets 05:45:11 0° 196° (SSW) 3,691 7.0 -13.2°
